Weather History for KPKD - April, 2014

Change the Weather History Date:

Thursday, April 10, 2014

  Actual Average Record
Temperature  
Mean Temperature 44 °F -  
Max Temperature 57 °F 51 °F 89 °F (1977)
Min Temperature 34 °F 25 °F 4 °F (1962)
Degree Days  
Heating Degree Days 21    
Moisture  
Dew Point 26 °F    
Average Humidity 52    
Maximum Humidity 82    
Minimum Humidity 26    
Precipitation  
Precipitation 0.00 in - - ()
Sea Level Pressure  
Sea Level Pressure 29.77 in    
Wind  
Wind Speed 15 mph (WNW)    
Max Wind Speed 25 mph    
Max Gust Speed 36 mph    
Visibility 10 miles    
Events      
Averages and records for this station are not official NWS values.
T = Trace of Precipitation, MM = Missing Value Source: NWS Daily Summary

Daily Weather History Graph

Daily Weather History Graph

Search for Another Location

Airport or City:

Trip Planner

Search our weather history database for the weather conditions in past years. The results will help you decide how hot, cold, wet, or windy it might be!

Date:

Astronomy

Apr. 10, 2014 Rise Set
Actual Time 6:41 AM CDT 8:01 PM CDT
Civil Twilight 6:10 AM CDT 8:33 PM CDT
Nautical Twilight 5:32 AM CDT 9:11 PM CDT
Astronomical Twilight 4:52 AM CDT 9:52 PM CDT
Moon 3:31 PM CDT (4/10) 4:21 AM CDT (4/10)
Length of Visible Light 14h 22m
Length of Day
13h 20m
Waxing Gibbous, 80% of the Moon is Illuminated
Apr 10
Waxing Gibbous
Apr 15
Full
Apr 22
Last Quarter
Apr 29
New
May 6
First Quarter

Hourly Weather History & Observations

Time (CDT) Temp. Windchill Dew Point Humidity Pressure Visibility Wind Dir Wind Speed Gust Speed Precip Events Conditions
12:53 AM 44.1 °F 36.5 °F 30.9 °F 60% 29.63 in 10.0 mi NW 17.3 mph 24.2 mph N/A   Clear
1:53 AM 42.1 °F 34.9 °F 28.9 °F 60% 29.65 in 10.0 mi WNW 13.8 mph - N/A   Clear
2:53 AM 39.9 °F 32.1 °F 28.9 °F 65% 29.64 in 10.0 mi WNW 13.8 mph - N/A   Clear
3:53 AM 37.9 °F 30.5 °F 28.0 °F 68% 29.64 in 10.0 mi West 11.5 mph - N/A   Clear
4:53 AM 36.0 °F 29.0 °F 28.0 °F 73% 29.66 in 10.0 mi West 9.2 mph - N/A   Clear
5:53 AM 34.0 °F 26.0 °F 27.0 °F 75% 29.66 in 10.0 mi West 10.4 mph - N/A   Clear
6:53 AM 35.1 °F 27.4 °F 27.0 °F 72% 29.69 in 10.0 mi West 10.4 mph - N/A   Clear
7:53 AM 37.4 °F 29.8 °F 26.6 °F 65% 29.69 in 10.0 mi WNW 11.5 mph - N/A   Clear
8:53 AM 42.8 °F 34.3 °F 26.6 °F 53% 29.71 in 10.0 mi WNW 19.6 mph - N/A   Clear
9:53 AM 44.1 °F 34.8 °F 27.0 °F 51% 29.74 in 10.0 mi WNW 25.3 mph 32.2 mph N/A   Clear
10:53 AM 48.0 °F - 26.1 °F 42% 29.77 in 10.0 mi WNW 20.7 mph 27.6 mph N/A   Clear
11:53 AM 50.0 °F - 25.0 °F 38% 29.78 in 10.0 mi NW 20.7 mph 27.6 mph N/A   Clear
12:53 PM 53.1 °F - 24.1 °F 32% 29.79 in 10.0 mi WNW 21.9 mph 32.2 mph N/A   Clear
1:53 PM 53.1 °F - 21.9 °F 30% 29.81 in 10.0 mi WNW 23.0 mph 35.7 mph N/A   Partly Cloudy
2:53 PM 53.1 °F - 23.0 °F 31% 29.80 in 10.0 mi WNW 25.3 mph 29.9 mph N/A   Mostly Cloudy
3:53 PM 52.0 °F - 21.9 °F 31% 29.81 in 10.0 mi WNW 25.3 mph 32.2 mph N/A   Overcast
4:53 PM 51.1 °F - 23.0 °F 33% 29.82 in 10.0 mi NW 25.3 mph 32.2 mph N/A   Overcast
5:53 PM 54.0 °F - 19.9 °F 26% 29.83 in 10.0 mi WNW 21.9 mph 31.1 mph N/A   Mostly Cloudy
6:53 PM 50.0 °F - 21.9 °F 33% 29.85 in 10.0 mi WNW 16.1 mph - N/A   Mostly Cloudy
7:53 PM 48.0 °F - 25.0 °F 41% 29.86 in 10.0 mi WNW 9.2 mph - N/A   Overcast
8:53 PM 42.1 °F 38.4 °F 26.1 °F 53% 29.89 in 10.0 mi NW 5.8 mph - N/A   Clear
9:53 PM 37.9 °F - 28.9 °F 70% 29.91 in 10.0 mi Calm Calm - N/A   Clear
10:53 PM 35.1 °F 30.1 °F 30.0 °F 82% 29.91 in 10.0 mi SSW 5.8 mph - N/A   Clear
11:53 PM 39.0 °F - 26.1 °F 60% 29.90 in 10.0 mi Calm Calm - N/A   Clear